This is the latest recevied weather packets stored in our database for station/object N0MPM-4. If no packets are shown the sender has not sent any weather packets the latest 10 day(s).
| Time | Temp. | Humidity | Pressure | Rain* | Wind** | Luminosity | Snow |
|---|---|---|---|---|---|---|---|
| 1787765584 | 27.22° C | 64% | 1015.5 hPa | 0 mm | - | - | - |
| 1787765284 | 26.67° C | 65% | 1015.5 hPa | 0 mm | - | - | - |
| 1787764984 | 26.67° C | 63% | 1015.5 hPa | 0 mm | - | - | - |
| 1787764926 | 27.22° C | 63% | 1015.5 hPa | 0 mm | - | - | - |
| 1787764684 | 26.67° C | 63% | 1015.5 hPa | 0 mm | - | - | - |
| 1787764565 | 26.67° C | 64% | 1015.5 hPa | 0 mm | - | - | - |
| 1787764384 | 26.67° C | 65% | 1015.5 hPa | 0 mm | - | - | - |
| 1787764206 | 26.67° C | 64% | 1015.5 hPa | 0 mm | - | - | - |
| 1787764084 | 26.67° C | 66% | 1015.5 hPa | 0 mm | - | - | - |
| 1787763845 | 26.67° C | 69% | 1015.5 hPa | 0 mm | - | - | - |
| 1787763784 | 26.67° C | 67% | 1015.5 hPa | 0 mm | - | - | - |
| 1787763484 | 26.67° C | 65% | 1015.4 hPa | 0 mm | - | - | - |
| 1787763466 | 26.11° C | 67% | 1015.3 hPa | 0 mm | - | - | - |
| 1787763184 | 26.67° C | 67% | 1015.3 hPa | 0 mm | - | - | - |
| 1787763125 | 26.67° C | 66% | 1015.3 hPa | 0 mm | - | - | - |
| 1787762979 | 26.11° C | 67% | 1015.2 hPa | 0 mm | - | - | - |
| 1787762884 | 26.67° C | 69% | 1015.4 hPa | 0 mm | - | - | - |
| 1787762765 | 26.67° C | 67% | 1015.3 hPa | 0 mm | - | - | - |
| 1787762584 | 26.67° C | 67% | 1015.3 hPa | 0 mm | - | - | - |
| 1787762405 | 26.11° C | 67% | 1015.3 hPa | 0 mm | - | - | - |
| 1787762284 | 26.11° C | 67% | 1015.3 hPa | 0 mm | - | - | - |
| 1787762046 | 26.11° C | 67% | 1015.3 hPa | 0 mm | - | - | - |
| 1787761984 | 26.11° C | 67% | 1015.3 hPa | 0 mm | - | - | - |
| 1787761684 | 26.11° C | 67% | 1015.2 hPa | 0 mm | - | - | - |
| 1787761384 | 25.56° C | 66% | 1015.1 hPa | 0 mm | - | - | - |
* Rain latest hour (hover to see other rain measurements)
** Current wind speed in m/s (hover to see current wind gust speed)